Hauptseite
METAR-TAF:

METAR-TAF

Flughäfen :

Paganella, Italien

Breite: 46-09N, Länge: 011-02E, Höhe: 2125 m

Beobachtung

Neuester Wetterbericht von vor 24 Minuten, um 18:55 UTC
Wind 6 kt aus Südwest
Temperatur 13°C
Luftfeuchtigkeit 67%
Luftdruck 1028 hPa
Sichtweite 10 km oder mehr
Leicht bewölkt in der Höhe von 4000 ft

METAR: LIVP 191855Z 22006KT 9999 FEW040 13/07 Q1028 RMK FEW MON LIB VAL NIL VIS MIN 9999

Zeit: 21:19 (19:19 UTC)


TAF: fehlend

Wetterbeobachtungen und Prognosen von mehr als 4000 Flughäfen (METAR und TAF Bericht).

Die verfügbaren Stationen werden durch gelbe und rote Markierungen auf der Karte dargestellt.

Führen Sie die Maus auf sie, um den Namen der Station zu sehen.

Darauf klicken, um die Beobachtung von Wetterbeobachtungen und Prognosen zu sehen.

Um die Karte zu ändern : klicken Sie auf den grünen Tasten mit einem schwarzen Kreuz Zum Vergrößern, auf den grünen Button mit einem Gedankenstrich zu verkleinern, oder auf die grünen Pfeile für benachbarte Karten.


METAR-TAF: